Airfield :
LOGIN :

Register | Disclaimer

   EN    FR    IT 

 










Legend :    VFR   Marginal VFR   IFR   Intensive IFR   Very Intensive IFR
Visi :
Ceiling :
>= 8 km
>= 3000ft
5 to 8 km
1000 to 3000 ft
1500m to 5 km
500 to 1000 ft
800 to 1500m
200 to 500 ft
< 800m
< 200 ft
Symbols :   Thunderstorms  Fog  Heavy snow  Heavy precipitations  Wind > 20 kt
SIGMETs :     Misc.  Thunderstorms  Icing  Turbulence  Mountain Waves  Volcanic Ashes







- Airport Elevation : 1766 ft


ETHL - Laupheim AB

CURRENT METAR :
  • 200520Z 24004KT 9999 FEW020 SCT042 BKN080 08/07 Q1021 BLU BLU

EXPIRED METARs :
  • 200420Z 23005KT 9999 FEW042 BKN080 08/07 Q1021 BLU BLU
  • 200320Z 22004KT 9999 FEW038 BKN060 08/07 Q1021 BLU

TAF TAF ETHL
Valid from the 20 at 05:00 until the 20 at 14:00 UTC


200426Z 2005/2014 25008KT 9999 NSW FEW040 BKN080
TEMPO 2007/2012 27012KT 8000 -SHRA SCT020 BKN030TCU
No reported NOTAMs for that airfield.



MET'MAP, your aeronautical weather chart ! - Copyright ORBIFLY December 2007 - Disclaimer

ORBIFLY MET'MAP TEAM :

Programming & Development : Alexandra Zaïnal
Concept & Development : Baudouin d'Aumeries
Co-Development & Prog : Marc-Olivier Méhu
Technical & hardware support : Manuel Goepfert

Contact : metmap@orbifly.com




SOURCES & CREDITS :

   NOAA